All Spectrum Aviation - Van Nuys Airport - KVNY

HOME

Van Nuys Tower Recordings

Condor Squadron KVNY Webcam

Visit our Electronics Store

2015/07/05 11:51 KVNY 051151Z AUTO 15004KT 6SM HZ OVC009 17/14 A2994 RMK AO2 SLP129 T01720144 10183 20167 56001
LATEST VAN NUYS ATIS IN MP3!
Older ATIS Recordings

Condor Squadron KVNY Webcam
Click to view larger images and timelapse / youtube videos!

HOME

Van Nuys Tower Recordings

Condor Squadron KVNY Webcam

Visit our Electronics Store